User: anonymous   Login
Location: *
(44.1392°N, 4.8079°E)
Time: 02:53:10
(UTC+00:00)
Language:

GPS 2-04 Rocket1 - Orbit

View from above orbital plane
View from above orbital plane
View from above satellite
View from above satellite

Ground track
Ground track

The orbit data is extracted from the following two-line orbital elements,

1 20303U 89085B   21264.54912778  .00003211  00000-0  97712-4 0  9993
2 20303  35.6439 349.0143 0089220 322.5503  36.9032 15.29889633738651
Epoch (UTC): 21 September 2021 13:10:44
Eccentricity: 0.0089220
inclination: 35.6439°
perigee height: 415 km
apogee height: 537 km
right ascension of ascending node: 349.0143°
argument of perigee: 322.5503°
revolutions per day: 15.29889633
mean anomaly at epoch: 36.9032°
orbit number at epoch: 73865

The dashed part of the orbit path shows where the satellite is in the earth's shadow,  

DLR